Theta_e
312 318 320 322 325 328 327 319 317 322 318 315 316 316 315 314 313 311 312 308 304 308 312 310 309 309 308 310 306 301 299 298 297 298 298 298 297 297 297 297 297 297 297 297 296 295 294 294 294 293 294 294 293 293 292 292 292 293 293 293 293 293 293 293 293 292 292 292 292 292 292 292 292 292 292 292 293 292 292 291 291 290 290 290 290 290
313 318 323 328 324 321 322 316 313 314 312 312 313 313 313 313 312 310 309 308 305 307 313 312 310 309 308 309 307 303 300 298 297 297 298 298 298 298 297 297 298 297 296 296 295 294 294 294 293 293 293 293 293 293 292 292 292 293 293 293 293 292 292 292 292 292 292 292 292 292 292 292 292 292 292 292 292 292 291 291 290 290 290 289 289 289
319 321 325 323 313 310 313 311 312 313 312 313 313 313 315 313 314 313 310 308 307 307 311 312 309 308 308 308 307 305 302 301 301 301 301 300 299 298 298 298 298 297 296 295 295 294 294 294 293 293 294 293 293 293 292 292 292 293 293 293 292 292 292 292 291 291 291 291 291 291 291 291 291 291 291 291 291 291 290 290 290 289 289 289 289 289
323 325 319 309 305 311 313 310 312 313 312 315 314 314 317 314 315 318 314 310 309 308 309 310 308 308 308 307 308 306 303 303 303 303 303 301 301 300 300 300 300 298 297 296 296 295 294 293 293 293 294 293 293 293 293 292 293 293 293 292 292 292 292 291 291 291 291 291 291 291 291 291 291 291 291 290 290 290 290 289 289 289 288 288 288 288
323 319 306 303 308 313 314 311 312 313 315 318 315 313 316 315 314 317 314 310 311 311 308 309 312 315 312 309 310 307 302 303 303 302 302 301 301 301 301 301 300 299 299 297 297 295 294 294 293 294 294 294 293 293 293 293 293 293 292 292 292 291 291 291 291 291 291 291 291 291 291 291 291 291 291 291 291 290 290 289 289 289 288 288 288 288
320 310 303 309 311 311 314 315 316 316 317 322 320 314 315 316 314 314 313 311 315 317 309 309 317 320 314 312 313 311 306 305 304 301 301 300 300 300 300 300 300 299 298 298 297 296 295 294 294 294 293 294 294 293 293 293 293 292 292 292 291 291 291 291 291 291 291 291 290 291 291 291 291 290 290 290 290 290 290 289 289 289 288 288 288 288
315 306 307 315 314 312 313 315 318 316 316 320 319 314 313 313 312 312 312 311 317 318 309 310 318 318 313 315 317 315 312 310 307 304 302 300 300 300 300 301 300 299 298 298 297 297 296 295 294 294 294 294 294 294 293 292 292 292 292 292 291 291 291 290 290 290 290 290 290 290 290 290 290 289 289 289 289 289 289 289 289 288 288 288 288 288
311 308 310 314 314 315 314 317 318 314 317 321 314 313 315 312 312 312 309 310 314 312 308 309 312 312 312 314 315 312 311 311 309 307 303 300 300 301 301 302 301 300 300 299 298 297 296 295 295 295 294 294 294 293 293 292 292 292 292 291 291 291 290 290 290 290 290 290 290 290 290 290 289 289 289 289 289 289 288 288 288 288 287 287 287 287
310 314 315 313 315 316 317 322 318 312 319 319 310 310 312 310 311 311 308 309 309 308 311 311 308 311 314 313 311 308 308 313 315 315 310 303 301 301 302 302 301 301 300 299 299 298 297 296 296 295 295 294 294 293 293 292 292 292 291 291 291 290 290 290 290 290 290 290 290 289 289 289 289 289 289 289 289 289 288 288 288 287 287 287 287 287
310 312 311 313 318 317 318 316 310 313 316 310 305 309 310 310 310 310 309 311 311 312 316 313 309 314 318 314 311 307 309 316 318 318 314 306 302 303 303 303 302 301 300 300 299 298 298 297 296 295 295 294 294 293 292 291 291 291 291 291 290 290 290 290 290 290 290 290 289 289 289 289 289 289 289 289 289 288 288 288 288 287 287 287 287 287
308 305 305 311 313 312 313 307 302 307 308 303 307 312 314 314 309 309 310 312 315 318 317 313 309 313 319 316 313 313 316 320 319 316 314 308 304 304 305 304 304 303 302 300 299 298 297 297 296 295 294 294 293 293 292 291 291 291 291 291 290 290 290 290 290 290 290 289 289 289 289 289 289 289 289 289 288 288 288 287 287 287 287 287 287 287
309 308 308 308 306 305 311 309 302 302 301 305 314 317 317 318 314 314 314 313 318 321 316 310 307 310 316 316 314 314 316 317 316 317 318 314 308 306 306 306 306 305 303 301 299 297 296 296 295 295 294 294 293 292 292 291 291 290 290 291 291 290 290 290 290 290 289 289 289 289 289 289 288 289 288 288 288 287 287 287 287 287 287 287 287 287
316 314 310 306 305 306 314 316 308 305 306 309 315 317 318 321 322 322 319 317 321 320 310 304 306 309 312 313 312 313 315 314 310 310 313 311 307 307 307 306 306 306 304 301 299 298 296 296 296 295 294 293 293 292 292 291 290 290 290 291 291 290 290 290 289 289 289 289 289 289 289 288 288 288 288 287 287 287 287 287 287 287 287 287 287 287
319 315 309 309 308 307 312 316 313 313 310 309 313 317 320 323 328 329 324 317 318 318 308 302 308 313 311 313 313 311 312 313 308 306 307 307 306 306 306 305 305 305 304 302 300 298 297 297 296 295 294 293 293 293 292 291 290 290 290 291 290 290 289 289 289 289 289 289 289 289 288 288 288 288 287 287 287 287 286 286 286 286 286 286 286 287
319 317 314 313 312 309 309 311 314 316 310 307 312 315 318 325 329 329 328 322 318 319 310 304 310 317 315 315 314 309 308 308 307 306 307 307 305 304 303 303 303 303 303 302 300 299 298 297 296 295 294 293 293 293 292 291 290 290 290 290 290 290 289 289 289 289 289 289 289 288 288 288 288 287 287 287 286 286 286 286 286 286 286 286 286 286
316 318 315 308 306 307 308 306 308 314 312 308 310 313 317 321 322 320 321 318 316 317 312 308 313 316 312 311 310 309 309 307 304 302 302 303 303 301 300 301 302 303 302 301 300 299 298 296 295 295 294 293 293 292 291 291 290 290 290 290 290 289 289 289 289 289 289 288 288 288 288 288 287 287 287 287 286 286 286 286 286 286 286 285 285 285
315 317 311 303 304 304 303 303 304 310 314 309 308 313 314 312 316 320 318 311 310 315 316 313 314 312 310 311 309 307 309 308 304 301 299 299 299 298 299 301 302 302 302 301 301 300 298 296 295 294 294 293 293 292 292 291 290 290 290 290 289 289 289 289 289 289 288 288 288 288 288 287 287 287 286 286 286 286 286 286 285 285 285 285 285 285
316 316 310 306 310 303 296 300 301 301 307 311 313 313 308 307 312 318 318 314 313 316 317 315 314 311 311 312 308 307 310 309 306 305 302 299 296 295 298 302 302 301 301 301 300 299 298 296 295 294 294 293 293 292 291 291 290 290 290 290 289 289 288 289 288 288 288 288 288 288 287 287 287 287 286 286 286 286 286 286 285 285 285 285 284 284
315 314 313 305 307 303 297 302 307 301 300 307 309 305 307 313 314 312 315 317 317 316 317 318 314 311 312 313 311 312 313 312 310 308 306 302 297 294 298 301 301 300 300 300 299 298 297 296 295 294 294 293 292 292 291 290 290 290 290 289 289 288 288 288 288 288 288 288 288 287 287 287 287 286 286 286 286 286 285 285 285 285 284 284 284 284
314 314 316 305 301 304 303 306 313 308 300 301 303 301 306 312 313 313 313 315 318 316 315 317 314 312 314 317 318 316 313 313 314 313 312 307 298 295 299 302 301 301 301 300 300 299 298 296 295 294 293 293 292 292 291 290 290 289 289 289 288 288 288 288 288 288 288 287 287 287 287 287 286 286 286 286 286 285 285 285 284 284 283 283 283 284
313 313 314 308 301 305 308 308 311 311 305 303 305 306 305 305 308 312 310 311 316 316 315 317 315 313 313 317 320 318 315 315 314 315 317 308 298 298 303 304 304 303 302 302 301 299 298 296 294 293 293 293 292 291 290 290 290 289 289 288 288 288 288 288 288 288 287 287 287 287 287 286 286 286 286 286 285 285 285 284 283 283 283 283 283 283
316 314 314 313 308 308 310 306 305 308 308 307 308 309 307 305 309 313 311 309 311 313 317 318 315 312 313 316 318 316 318 319 314 314 316 305 299 302 306 307 307 305 304 303 301 299 297 295 294 293 292 292 291 291 290 289 289 289 288 288 288 288 288 288 288 288 287 288 287 287 287 286 286 286 285 285 285 284 284 283 283 283 283 283 283 283
314 316 314 315 314 309 305 301 299 303 306 306 308 309 307 307 309 313 313 311 310 310 312 314 313 313 313 317 319 317 317 314 308 308 308 301 300 305 307 307 307 305 303 302 300 298 297 295 294 293 292 292 291 290 290 289 289 288 288 288 288 288 288 288 288 287 287 287 287 287 286 286 286 285 285 285 284 284 283 283 282 282 282 282 282 282
311 316 314 313 315 311 304 301 300 301 304 307 308 307 306 307 309 310 311 311 314 312 310 311 312 311 312 317 317 312 307 302 300 300 299 297 300 305 306 306 306 304 301 299 298 297 295 293 293 292 292 292 291 290 290 289 289 288 288 288 288 288 288 287 288 288 287 287 287 286 286 286 285 285 285 284 284 283 283 282 282 282 282 282 282 282
312 317 315 312 315 314 309 307 306 305 305 307 309 307 306 307 307 308 309 309 312 312 310 312 312 311 313 314 309 305 304 303 302 298 296 297 299 302 304 304 303 301 299 297 296 295 293 293 292 292 292 291 291 290 289 289 288 288 288 288 288 288 288 287 288 287 287 287 287 286 286 285 285 285 284 284 283 283 283 282 282 281 281 281 282 282
314 317 315 312 313 312 310 311 313 311 306 305 308 307 305 306 306 308 309 308 310 310 310 311 312 311 312 311 307 306 307 307 303 298 295 296 299 300 301 302 301 299 298 297 295 294 293 292 292 292 292 291 291 290 289 289 288 288 288 288 288 288 287 287 288 287 287 287 286 286 285 285 285 284 284 284 283 283 283 282 281 281 281 281 282 282
318 318 314 312 313 311 310 310 311 312 310 308 309 308 306 306 306 307 309 309 309 309 309 310 310 311 311 310 310 310 309 308 307 303 298 296 298 300 300 300 300 298 297 296 294 293 292 292 292 292 292 291 290 289 289 289 288 288 287 287 288 288 287 288 287 287 287 286 286 286 285 285 285 284 284 284 283 283 282 282 281 280 281 281 281 282
319 316 312 312 312 311 311 311 310 312 313 311 310 309 307 306 306 306 308 308 309 309 309 310 310 310 310 310 310 310 309 309 309 309 304 299 300 302 300 299 297 295 294 293 293 293 292 292 292 292 291 291 290 289 289 288 288 287 287 287 287 287 287 287 287 287 287 286 286 285 285 285 285 284 284 283 283 282 282 282 281 280 280 281 282 282
315 313 312 313 312 311 311 311 312 313 311 310 310 309 307 306 306 306 306 307 308 309 310 310 310 310 310 309 309 309 309 309 309 309 307 303 302 302 299 297 295 294 293 293 293 293 292 292 292 291 291 290 290 289 289 288 288 287 287 287 287 287 287 287 287 287 286 286 286 285 285 285 284 284 283 283 282 282 282 281 280 280 280 281 282 282
311 312 312 312 312 312 311 311 311 311 309 309 310 309 308 306 306 306 306 306 307 307 308 309 309 310 309 309 310 309 309 309 308 308 307 305 303 301 298 297 296 295 294 294 294 293 292 292 291 291 291 290 290 289 288 288 287 287 287 287 287 287 287 287 287 287 286 286 285 285 285 284 284 283 283 282 282 282 281 281 280 279 280 281 282 282
308 312 314 312 312 313 311 311 311 311 310 310 310 309 309 307 306 306 306 306 306 306 307 307 308 308 308 308 309 308 308 307 307 307 306 306 305 302 299 297 297 296 295 295 295 293 292 291 291 291 291 290 290 289 288 288 287 287 287 287 287 287 287 287 287 286 286 285 285 285 284 284 284 283 282 282 282 281 281 280 279 279 280 281 282 282
307 311 315 313 313 313 312 312 312 311 310 309 310 310 310 309 309 308 307 307 306 306 306 307 307 307 307 308 308 307 307 307 307 307 305 305 305 303 299 298 298 297 297 296 294 293 292 291 291 291 291 290 289 288 288 287 287 287 287 287 287 287 287 287 287 286 286 285 285 285 284 284 283 283 282 282 281 280 280 279 279 279 281 281 282 281
307 309 311 312 312 312 312 312 311 310 310 310 311 310 310 310 310 309 309 309 308 307 307 308 309 308 308 309 308 308 308 308 308 307 306 305 305 303 301 300 300 299 299 297 295 294 293 291 291 291 290 290 289 288 287 287 287 287 287 287 287 287 287 286 286 286 285 285 285 284 284 284 283 283 282 281 280 279 279 279 279 280 281 281 281 280
306 308 310 310 312 312 310 310 310 311 312 313 313 313 312 311 310 310 310 309 309 308 308 308 309 309 309 309 309 309 309 308 308 308 306 306 306 304 303 302 302 301 299 298 296 295 293 292 291 290 290 289 288 288 287 287 287 287 287 287 287 287 287 286 286 286 285 285 284 284 284 284 283 282 281 280 279 278 278 278 279 280 281 281 280 279
307 307 309 310 311 310 308 309 311 312 313 312 313 315 314 311 311 310 310 309 309 309 308 309 309 308 309 309 308 308 308 308 308 307 306 306 306 305 304 303 303 301 299 297 296 294 293 291 290 290 289 288 288 287 287 287 287 287 287 287 287 286 286 286 286 285 285 284 284 284 284 284 283 282 281 279 278 278 278 278 279 280 280 280 279 278
308 307 308 309 311 308 307 309 312 312 312 311 312 312 310 308 309 310 310 310 309 308 309 308 308 308 309 308 307 308 307 307 306 305 305 305 305 305 304 304 304 302 301 299 298 296 293 291 290 290 289 288 287 287 287 287 287 287 287 287 286 286 286 286 285 285 285 285 285 284 284 283 282 281 280 278 278 277 278 278 279 279 279 279 278 277
307 308 308 309 310 310 309 310 311 311 311 311 310 310 310 309 309 309 310 310 309 309 309 308 308 308 308 307 307 306 305 304 304 304 305 305 305 305 304 304 304 303 301 300 298 295 293 291 290 289 289 288 287 287 287 287 287 287 287 286 286 286 286 286 285 285 285 285 284 284 283 282 281 280 279 277 277 277 278 278 278 279 278 278 278 277
305 308 308 309 310 311 311 310 310 311 312 311 310 311 311 310 309 309 310 310 310 310 310 309 308 308 308 309 306 303 302 304 305 305 305 305 305 304 303 302 302 300 300 298 295 292 291 290 289 289 288 288 287 287 287 287 287 287 287 286 286 286 286 285 285 285 285 284 284 283 282 281 280 279 278 277 277 277 277 278 278 278 278 277 277 277
305 306 308 309 309 310 311 311 311 312 312 311 311 311 308 305 306 308 310 310 310 310 309 309 309 308 309 309 304 301 303 306 306 305 305 305 305 304 303 301 299 297 296 296 295 293 291 290 289 288 287 287 287 287 287 287 287 287 286 286 286 286 285 285 285 285 285 284 283 282 281 280 279 278 277 276 276 277 277 277 278 278 277 277 277 277
304 304 305 307 308 310 311 311 311 311 311 311 311 307 302 303 306 310 311 311 312 311 309 308 309 309 308 305 302 302 305 306 306 305 304 304 304 303 302 300 298 296 295 293 293 292 291 289 288 288 287 287 287 287 287 287 286 286 286 286 286 285 285 285 285 285 284 283 283 282 281 279 278 277 276 276 276 277 276 277 277 278 277 277 277 276
304 304 305 306 308 309 310 311 312 311 311 312 308 302 301 304 308 311 311 312 313 312 307 306 307 307 305 302 299 302 305 305 305 304 302 302 302 302 300 298 296 295 294 293 292 291 290 289 288 287 287 287 287 287 287 287 286 286 286 286 285 285 285 285 285 284 283 283 282 281 279 278 277 277 276 276 276 276 276 276 277 277 277 277 277 276
306 305 305 306 307 308 309 311 311 310 312 310 304 300 302 307 310 311 310 310 310 309 306 305 305 305 304 301 299 302 304 303 303 301 299 299 300 299 298 297 294 293 292 291 291 290 289 288 287 287 287 286 286 287 287 286 286 286 286 286 285 285 285 284 284 284 283 282 281 280 279 278 277 276 276 276 276 276 276 276 276 277 277 276 276 276
309 307 307 307 308 308 309 310 310 312 312 308 303 302 304 307 311 311 309 309 310 308 306 305 305 305 305 303 302 303 303 302 301 299 298 298 297 297 297 296 295 293 292 291 290 289 289 288 287 287 287 286 286 287 286 286 286 286 286 285 285 285 285 284 284 283 282 281 280 279 278 277 276 276 276 276 276 276 276 276 276 277 277 276 276 275
310 310 309 308 309 310 309 309 310 312 310 306 305 306 306 306 309 310 309 310 309 308 307 306 306 306 306 305 304 304 302 300 300 299 298 297 296 296 295 294 293 292 291 290 289 288 288 288 287 286 286 286 286 286 286 286 286 286 286 285 285 285 284 284 283 282 281 281 279 278 277 276 276 275 275 276 275 275 275 275 276 276 277 276 275 275
312 312 311 311 311 311 311 310 310 309 306 304 306 309 307 306 308 308 308 308 308 307 307 306 307 307 307 306 305 304 302 301 301 299 298 296 295 295 294 293 292 291 290 290 288 287 287 287 287 287 286 286 286 286 286 286 286 286 285 285 285 284 284 283 283 282 281 280 279 277 277 276 275 275 275 275 275 275 275 275 275 276 277 276 275 274
312 312 312 312 311 310 310 310 309 308 305 303 305 308 308 308 308 307 306 306 306 307 307 307 307 307 306 306 305 303 302 302 301 298 297 295 294 293 293 292 290 290 289 289 288 287 286 286 287 287 286 286 286 286 286 286 286 286 285 285 284 284 284 283 282 281 280 279 278 277 276 275 275 275 275 274 275 275 275 275 275 275 276 276 274 273
312 311 311 311 311 312 311 310 310 309 306 303 304 306 307 307 307 307 306 306 306 306 306 307 307 307 306 306 305 304 303 302 300 298 296 294 293 293 292 291 290 289 289 288 288 287 286 286 286 286 286 286 286 286 286 286 286 286 285 285 284 284 283 282 281 280 279 278 277 276 275 274 274 274 274 274 274 275 275 274 274 274 275 275 275 273
312 311 310 310 311 311 312 311 310 310 308 306 305 305 305 306 306 305 306 306 306 306 305 305 306 306 305 305 305 304 303 302 300 298 296 294 293 292 292 291 290 289 288 287 287 287 286 286 286 286 286 286 286 286 286 286 286 285 285 285 284 284 283 282 281 280 279 277 276 276 274 274 273 273 273 273 274 274 275 275 274 274 274 274 274 273
312 311 311 311 310 311 311 311 311 310 308 307 306 306 306 307 306 305 305 305 304 304 303 304 304 305 304 304 304 303 302 301 300 299 297 295 293 292 292 291 290 289 288 287 287 287 287 286 286 286 286 286 286 286 286 286 286 285 285 284 284 283 282 281 280 279 278 277 276 275 274 273 273 272 272 272 273 273 274 274 274 274 273 273 273 273
312 311 312 312 311 311 311 310 311 311 310 309 308 308 308 308 306 305 305 304 303 303 303 303 303 303 303 303 303 303 302 301 300 299 297 295 294 293 292 291 289 288 287 287 286 286 286 286 286 286 286 286 286 286 286 286 285 285 285 284 284 283 282 280 279 278 277 276 276 274 273 272 272 272 272 272 272 272 273 274 274 274 274 273 273 273
312 312 312 312 312 312 312 311 310 311 311 311 310 310 310 308 307 306 306 305 305 304 304 303 302 301 302 302 302 302 303 302 301 299 296 295 294 294 293 291 290 288 287 286 286 285 285 286 286 286 286 286 286 286 286 286 285 285 284 284 283 282 281 279 279 278 277 276 275 274 272 272 272 271 271 271 272 272 272 273 273 274 274 274 273 273
Wind_Speed
2 1 3 5 6 7 7 7 6 5 6 5 4 4 5 5 7 6 4 4 1 1 9 10 9 11 16 16 11 17 25 26 25 25 28 29 31 35 39 41 44 46 46 41 38 36 34 31 28 26 24 22 19 16 14 12 11 11 11 11 12 13 14 15 17 18 19 21 22 24 25 26 26 28 28 29 31 32 32 32 33 34 35 35 35 36
3 3 7 8 9 6 5 6 6 5 5 3 3 3 5 5 8 8 3 4 1 3 7 7 7 12 15 16 13 12 16 19 24 26 29 32 33 37 40 43 46 45 43 40 39 38 35 33 31 29 27 25 21 18 15 14 13 12 12 12 12 13 14 16 17 18 20 22 23 25 26 28 28 29 30 30 31 32 31 32 33 34 35 35 36 36
2 5 10 9 6 6 5 5 7 5 4 3 2 1 4 4 5 8 4 4 2 3 6 7 8 13 14 16 17 12 15 21 30 35 37 35 34 38 41 44 45 43 42 42 42 41 39 37 34 32 30 27 23 20 17 16 15 14 12 12 12 13 14 16 17 18 20 21 23 25 26 28 29 30 31 31 32 33 33 34 34 35 36 37 37 37
2 7 7 6 8 8 5 3 6 4 2 3 3 2 5 4 2 5 4 4 2 2 5 8 11 13 10 14 16 13 19 25 29 35 38 36 36 40 43 45 46 46 46 46 45 45 42 40 38 35 33 29 26 23 20 18 16 15 13 12 12 13 14 15 17 18 20 22 23 25 26 28 30 30 31 33 34 35 36 36 36 37 37 38 38 37
6 6 3 6 6 7 5 3 6 4 3 3 5 6 6 6 5 6 3 5 5 3 3 6 11 10 5 9 10 6 11 18 22 26 29 33 37 38 39 43 46 48 48 48 48 48 46 44 42 38 34 31 29 26 22 19 16 15 13 12 12 13 14 15 17 19 20 22 24 25 27 28 29 30 32 34 35 36 37 38 38 38 38 38 38 37
8 5 6 6 3 4 6 4 5 7 3 4 5 9 9 8 7 5 4 5 4 4 3 6 7 7 0 3 8 5 3 9 13 15 21 29 33 34 38 42 44 44 45 47 48 49 49 48 44 40 36 34 32 28 24 20 17 14 13 12 12 13 14 15 17 19 21 23 25 27 29 30 32 32 33 34 36 37 38 38 39 39 37 37 37 37
3 2 5 5 5 5 5 5 5 7 5 3 4 7 7 5 2 2 3 3 1 3 3 4 1 9 3 3 7 9 6 9 10 10 16 24 28 34 42 44 42 42 44 46 47 49 50 50 47 43 40 37 34 29 24 20 17 14 13 12 12 13 14 15 17 19 21 23 25 27 29 30 32 34 34 35 37 38 39 40 40 40 39 37 37 38
2 4 4 5 6 5 5 5 6 9 7 3 4 5 6 5 4 4 2 0 3 2 4 2 4 7 8 5 7 7 7 12 14 12 13 19 27 34 41 44 42 43 46 47 48 49 51 52 51 47 43 39 34 29 25 20 16 14 12 12 12 13 14 15 17 19 21 24 25 27 28 29 31 33 35 37 38 39 40 41 41 41 40 39 38 39
3 5 5 6 5 3 6 5 8 11 5 5 5 6 6 6 5 4 4 2 2 3 5 4 5 4 9 6 3 3 4 10 14 15 12 14 25 34 39 42 42 43 45 46 49 50 52 53 52 49 44 38 33 30 25 20 16 14 12 12 13 13 14 15 17 19 21 24 25 26 28 30 31 33 35 37 39 39 41 42 42 41 41 40 40 39
2 3 6 7 5 5 5 2 6 9 4 4 6 6 5 5 4 4 3 2 2 2 8 7 8 4 8 5 3 1 3 9 11 12 10 11 19 28 34 37 39 41 43 45 48 49 51 52 52 49 43 37 34 30 25 20 17 14 12 12 13 13 14 15 17 19 21 23 25 26 29 31 32 34 36 38 39 40 41 42 43 43 42 42 41 41
1 2 1 3 4 5 5 3 2 3 4 6 7 5 5 5 4 4 2 3 3 5 9 7 13 8 6 3 6 4 5 8 8 7 8 10 16 22 27 30 34 38 41 44 46 47 48 49 48 47 42 38 35 31 26 21 18 15 13 12 12 14 15 16 17 19 20 22 24 26 29 31 33 35 37 39 40 40 41 42 43 44 44 44 43 43
3 1 2 3 4 6 8 5 4 4 4 5 4 4 4 4 3 4 4 4 1 7 6 3 9 9 8 7 5 7 8 7 8 7 8 9 14 19 21 24 27 32 37 41 43 44 46 47 47 46 44 40 37 32 27 22 18 15 14 13 12 13 15 16 17 19 20 22 24 26 28 30 33 35 37 39 40 41 42 43 44 45 45 46 45 44
3 4 3 1 3 6 6 4 3 4 4 4 4 4 2 3 3 4 3 1 3 7 3 1 3 5 11 11 8 10 12 10 9 10 12 13 16 21 21 21 23 26 32 37 41 43 45 48 49 49 46 43 39 33 27 22 19 16 15 14 12 13 15 16 17 19 20 22 24 26 28 30 32 35 36 38 39 40 41 43 44 46 47 47 47 47
4 4 1 2 3 7 9 5 3 2 2 6 5 4 4 2 1 3 4 2 5 6 2 3 3 3 9 8 12 18 17 17 16 16 19 23 24 26 24 22 22 24 30 34 38 42 45 48 51 51 49 45 40 33 27 22 19 16 15 14 13 13 15 16 17 19 20 22 24 26 28 30 32 34 35 37 38 39 40 42 44 45 46 47 48 49
4 7 4 5 2 8 11 5 5 5 4 5 4 5 5 5 4 4 4 4 7 6 3 2 2 4 5 4 8 13 15 20 23 21 23 27 28 26 24 22 23 26 29 33 36 40 44 47 50 52 49 45 39 32 27 23 20 17 15 14 13 13 14 16 17 19 21 22 24 25 27 30 32 34 35 36 37 38 40 41 43 44 45 46 47 49
4 8 5 1 1 7 7 2 5 7 3 2 3 4 3 5 5 2 3 4 1 5 4 3 4 6 4 4 6 6 8 15 17 17 20 27 27 22 21 24 26 28 30 32 36 39 42 46 50 52 49 44 38 32 27 23 20 17 15 13 12 13 14 15 17 19 21 23 24 25 28 30 32 33 35 36 37 38 39 40 42 44 44 46 47 48
2 6 3 2 2 2 2 1 2 2 3 2 3 4 5 4 5 2 3 1 5 3 6 2 6 9 4 5 7 6 8 11 10 11 16 23 22 17 21 28 29 30 31 33 35 38 41 45 49 51 48 43 38 33 27 23 20 17 14 13 12 12 13 15 17 19 21 23 24 25 28 30 32 33 34 36 37 38 39 40 41 43 45 45 46 48
3 4 2 2 1 1 1 1 2 2 3 5 3 5 3 2 4 3 2 3 3 3 6 3 8 14 9 7 2 4 7 11 10 11 13 16 15 16 25 31 31 30 30 32 34 36 40 44 49 50 47 43 38 32 26 22 19 17 14 13 12 12 13 15 17 19 21 22 24 26 28 30 31 33 34 35 37 38 39 40 41 43 44 45 46 47
3 2 4 2 2 2 2 1 0 2 2 4 3 2 3 3 2 2 2 2 2 3 6 8 10 14 11 8 4 4 9 11 10 11 12 11 12 17 28 32 31 29 30 32 34 36 40 44 48 50 47 42 36 30 25 22 19 16 14 12 11 12 13 15 17 18 20 22 24 27 28 30 31 32 34 35 36 38 39 41 42 43 45 45 46 47
3 2 5 1 2 1 2 2 5 3 1 3 1 2 2 2 4 3 3 3 3 3 6 8 10 14 10 7 6 9 11 11 10 10 11 11 14 21 29 31 30 30 32 34 35 37 40 44 47 49 47 41 35 29 25 22 19 16 13 12 11 12 13 15 17 18 20 21 24 27 28 30 31 32 34 35 36 37 39 41 42 43 45 45 46 47
4 3 5 1 2 1 3 5 7 9 7 4 3 2 1 1 2 1 1 2 4 4 4 3 8 17 8 7 8 10 9 11 11 10 11 11 17 25 29 29 30 31 33 35 36 37 40 43 46 47 44 39 33 29 25 22 18 15 13 12 11 12 13 15 16 18 20 22 25 27 28 30 31 32 34 35 36 38 39 41 42 43 45 46 47 47
3 3 5 2 2 4 5 2 2 5 6 7 7 7 7 5 4 1 5 3 3 4 5 4 8 19 8 6 6 7 7 9 10 11 11 10 17 25 26 27 29 31 33 35 36 37 39 42 45 46 42 37 33 29 25 21 18 15 13 12 11 12 13 15 16 17 20 22 25 27 28 30 31 32 34 35 36 38 39 41 42 43 45 46 47 48
4 3 3 5 6 5 3 1 1 2 2 2 5 4 5 6 6 6 8 5 2 2 2 4 5 19 10 6 6 7 7 9 10 11 10 10 18 23 23 25 28 31 33 33 34 36 38 41 44 45 42 37 33 29 24 21 18 15 14 12 12 12 13 14 16 18 21 23 25 26 28 30 31 33 34 35 37 38 40 41 42 43 45 46 47 48
3 2 4 7 5 2 3 2 2 3 3 2 5 4 6 7 8 8 6 3 2 3 3 4 5 19 10 5 5 5 3 6 9 11 10 11 19 22 22 25 28 30 32 32 33 35 37 40 43 44 42 38 33 28 24 21 18 15 14 13 12 12 13 14 16 19 21 23 25 26 28 30 31 33 35 36 37 38 40 42 43 44 45 46 47 48
6 2 3 4 6 5 4 2 2 2 1 4 5 5 8 11 9 3 1 1 3 6 9 5 11 19 9 3 4 1 3 6 8 12 14 15 18 21 23 26 27 29 31 32 33 35 36 40 44 45 43 39 33 28 24 21 18 15 14 13 12 12 12 14 17 19 21 23 25 26 28 30 31 33 35 36 37 39 40 42 44 44 45 46 47 48
9 3 6 7 9 10 10 6 3 3 3 3 4 6 11 15 13 7 3 4 7 8 11 10 18 18 14 12 6 2 5 8 9 12 15 17 21 22 24 26 27 29 31 33 34 35 38 41 45 46 43 38 33 28 24 21 18 16 14 12 12 12 13 15 17 19 21 23 25 27 28 30 32 33 35 36 38 40 42 44 45 46 46 46 47 48
4 2 9 13 13 14 15 11 5 6 5 6 9 13 15 16 16 12 7 7 10 8 9 17 22 18 22 29 20 12 12 14 14 14 12 17 23 25 26 28 28 29 31 33 34 35 38 42 46 46 42 37 32 27 24 21 18 16 14 12 12 12 13 15 17 19 22 24 25 27 29 31 33 35 36 38 40 41 43 45 46 46 47 46 47 49
2 5 15 18 18 18 19 15 7 8 8 10 12 16 17 15 15 13 13 17 16 9 11 21 22 19 26 32 26 21 20 18 19 17 12 16 24 26 27 27 26 28 30 31 33 36 40 43 47 46 41 36 31 27 24 21 18 16 14 12 11 12 13 15 17 19 22 24 26 27 29 32 34 36 37 39 41 42 44 46 47 47 47 47 47 49
2 10 16 15 17 20 22 17 9 9 10 9 11 17 16 14 16 17 21 27 21 12 16 24 23 23 28 29 25 23 21 17 19 23 18 17 21 23 24 24 26 29 30 32 35 38 41 44 47 46 41 36 32 28 25 22 18 15 13 11 11 12 13 15 17 19 22 24 26 28 30 33 35 37 38 40 41 43 44 46 47 47 47 47 48 49
3 9 14 14 15 18 21 18 9 9 11 10 13 21 15 12 17 22 27 28 20 16 24 29 27 27 28 26 23 25 25 22 25 30 27 22 23 22 23 25 28 31 32 35 38 40 42 45 47 46 41 36 33 29 25 22 18 15 13 11 11 12 13 15 17 19 22 24 26 28 31 33 35 37 39 40 42 43 44 46 47 47 47 47 48 49
6 8 10 9 10 16 21 16 10 12 14 13 19 26 18 13 18 26 26 19 13 18 27 27 24 26 28 25 21 22 28 27 26 27 29 30 29 24 24 27 30 32 34 36 38 39 41 44 45 45 41 37 34 29 25 21 18 15 13 11 11 11 13 15 17 19 22 24 26 29 31 34 36 38 39 41 42 43 44 46 46 46 46 47 48 49
6 5 2 2 6 15 16 9 8 9 6 10 22 30 24 18 20 24 19 14 15 20 22 19 19 22 24 19 16 18 23 22 20 22 25 28 27 24 27 30 32 33 36 37 38 39 42 45 47 46 43 38 33 28 24 21 18 15 13 11 11 11 12 15 17 19 22 24 27 29 32 34 36 38 40 41 41 42 43 45 45 45 45 46 48 49
5 4 2 4 8 13 8 3 7 6 1 9 20 25 24 22 22 20 18 18 20 19 16 15 20 24 19 12 14 20 21 18 19 22 22 23 25 27 30 32 33 35 36 37 38 40 43 46 48 48 43 37 31 27 24 21 18 15 12 11 10 10 12 15 17 19 22 24 27 29 32 35 37 39 40 40 41 41 42 44 44 44 45 46 48 50
5 7 7 5 7 10 4 6 7 4 9 13 9 9 15 19 21 20 21 24 23 19 17 18 24 26 18 12 18 22 21 23 29 29 23 21 25 28 30 32 35 35 35 36 37 40 42 45 47 46 40 34 30 27 24 21 18 15 12 10 10 10 12 14 17 19 22 24 27 30 32 35 37 39 39 39 40 40 41 42 43 42 44 46 48 49
8 9 7 4 5 4 3 5 3 9 14 9 3 2 10 13 15 18 20 24 26 24 22 22 26 29 23 19 22 24 27 36 41 34 25 25 29 29 29 33 35 34 34 35 36 39 42 45 46 44 39 34 30 27 23 20 17 14 11 9 8 9 12 14 16 19 22 24 27 30 33 36 37 38 38 39 39 39 40 41 41 41 44 46 47 48
9 8 4 4 4 1 2 7 11 12 9 10 12 10 7 4 4 9 15 20 23 23 20 18 24 29 25 20 25 32 34 34 35 34 32 33 33 32 32 36 36 35 35 35 36 39 42 45 47 45 40 34 29 26 23 19 16 13 10 8 8 10 12 14 16 19 21 25 28 30 33 36 37 37 38 38 38 38 39 39 39 41 43 46 46 46
10 9 5 6 7 5 7 10 11 12 12 15 21 17 6 5 6 7 10 18 24 22 16 16 22 27 22 19 26 30 24 16 17 26 36 37 36 36 37 37 36 34 33 33 34 37 40 43 45 42 37 32 28 25 22 18 15 12 9 7 8 10 12 14 16 19 22 25 28 31 33 35 35 36 36 37 37 37 38 38 39 40 42 45 46 46
14 11 9 9 9 8 10 10 10 11 13 18 23 16 3 7 11 10 6 16 25 18 12 16 22 23 19 19 18 11 5 6 8 17 30 34 30 30 31 32 32 31 30 31 34 36 38 42 43 38 33 30 28 25 21 17 14 11 8 7 8 9 12 14 16 19 22 25 28 30 32 33 33 34 35 35 35 36 37 37 38 39 41 43 45 46
14 9 9 10 8 8 11 11 11 12 12 14 17 10 2 9 10 7 3 16 21 10 14 17 20 20 17 16 9 6 4 5 7 14 28 30 22 20 22 24 28 28 28 31 34 35 39 42 41 36 32 30 27 23 20 16 12 10 8 7 8 9 11 14 17 19 22 25 27 29 30 30 31 32 34 34 33 34 35 36 36 38 40 42 43 46
8 7 8 10 11 13 13 11 10 8 8 11 11 3 8 15 14 8 6 17 12 8 17 18 16 17 16 10 7 7 6 8 10 15 23 21 14 15 17 19 24 27 28 31 32 34 39 43 41 36 32 29 26 22 18 15 11 9 8 7 7 9 11 14 17 20 23 25 26 27 28 28 29 30 31 32 32 33 34 34 35 37 40 41 43 45
5 6 8 10 13 14 13 14 11 6 8 13 7 9 14 14 11 4 16 17 5 7 16 18 16 19 18 11 10 9 14 21 21 19 16 12 10 12 14 16 22 24 27 31 32 35 41 42 38 34 31 29 25 21 17 14 10 8 7 6 8 10 12 14 17 20 22 24 25 25 25 26 28 29 29 30 31 32 32 32 34 37 39 41 43 44
5 4 6 9 11 11 12 13 9 6 14 16 9 16 15 8 4 15 16 8 4 5 13 18 19 21 20 18 18 20 23 27 26 21 17 14 12 13 15 19 23 25 28 31 33 39 43 41 37 34 31 28 24 21 17 13 10 9 7 6 8 10 12 15 17 20 22 23 23 23 23 24 25 27 27 28 29 31 32 31 32 35 38 40 42 44
9 5 5 7 8 8 8 8 6 8 15 15 14 10 8 8 17 24 14 7 12 13 12 16 19 20 20 21 26 29 26 23 22 22 21 17 15 16 18 20 24 28 32 34 38 42 43 40 37 34 31 28 24 20 16 13 11 8 6 6 8 10 12 15 17 20 21 22 21 21 21 22 23 25 26 27 28 30 32 32 32 34 37 39 41 43
9 7 7 7 8 7 6 9 11 11 10 24 24 11 16 30 41 38 19 12 21 22 17 18 21 22 23 24 27 29 27 24 24 24 22 20 20 20 21 23 26 30 34 39 43 44 42 40 37 34 30 27 23 19 16 13 11 8 5 6 8 10 12 14 17 19 20 20 20 19 20 21 21 23 24 26 28 29 31 32 33 34 36 39 39 41
13 16 15 10 9 11 11 12 13 11 12 29 32 27 32 47 57 49 28 18 23 25 22 23 26 27 27 28 27 27 28 28 28 27 26 26 25 25 25 28 31 34 38 43 45 43 40 38 36 34 30 27 23 19 16 13 10 7 5 6 8 10 12 14 17 18 18 18 18 18 18 19 19 20 22 25 27 29 31 32 33 34 36 38 39 39
16 19 16 10 8 10 12 12 12 9 9 24 37 42 43 45 47 45 37 32 33 34 29 28 32 31 29 29 28 29 30 30 29 29 29 28 28 28 30 32 34 38 43 45 45 42 39 36 34 32 29 26 23 19 16 13 9 6 5 7 8 9 12 14 16 16 16 16 17 17 18 18 17 18 20 23 25 28 29 31 33 34 35 37 38 38
11 14 13 10 9 10 11 14 19 19 17 23 34 41 43 43 41 40 40 41 45 44 37 34 35 32 29 30 31 33 33 31 30 31 31 31 32 32 34 36 40 43 46 46 45 42 40 37 34 32 29 25 22 19 16 12 9 7 6 7 8 9 12 14 15 15 14 14 15 16 17 17 17 17 19 21 24 26 28 30 31 32 33 35 37 39
11 14 13 11 13 14 15 17 20 23 25 30 34 34 37 44 46 43 42 43 43 40 38 37 36 33 32 34 34 34 34 32 32 34 34 35 35 36 37 40 43 46 47 46 43 42 40 38 35 32 29 25 22 19 16 12 9 7 7 7 7 9 12 13 13 13 13 13 14 15 15 16 17 18 19 20 22 25 28 30 31 31 31 31 34 36
9 12 12 10 14 17 18 17 16 15 15 21 33 42 49 52 48 43 43 43 39 35 36 38 38 37 37 37 36 35 34 33 34 35 36 38 39 39 40 43 46 48 48 46 43 41 39 37 34 31 28 25 22 19 15 12 9 8 7 6 7 9 11 12 12 12 12 12 13 14 14 15 16 18 20 20 21 21 23 27 30 31 29 28 29 30
7 9 10 10 13 15 14 17 19 16 11 15 32 49 55 52 44 38 38 40 41 42 42 41 39 38 38 38 37 36 36 36 36 37 38 41 42 42 42 45 48 50 48 45 43 40 37 35 33 30 27 25 22 18 15 12 10 8 7 6 7 9 11 11 11 11 11 11 12 12 12 13 15 17 19 22 22 22 21 21 23 27 28 27 27 26
12 15 13 12 15 17 19 23 25 19 14 21 39 49 47 42 41 40 42 44 47 48 47 44 42 41 41 42 41 40 40 41 41 40 41 43 43 43 43 46 50 51 49 46 43 41 38 35 32 30 28 25 21 18 15 12 10 9 7 6 6 8 9 9 9 9 10 10 11 11 12 13 15 17 18 21 23 25 25 23 21 21 23 25 26 26
Wind_Direction
91 208 217 220 222 223 219 193 184 175 148 142 150 194 231 241 269 257 236 285 25 233 266 252 244 257 265 269 250 215 211 218 226 228 229 225 220 219 218 219 219 220 222 220 217 216 216 216 217 219 222 227 231 236 243 247 255 265 275 287 297 306 313 316 320 324 326 328 329 329 330 331 333 332 332 331 326 323 323 323 322 323 323 324 324 324
80 208 231 226 218 211 201 169 135 127 118 109 162 229 266 232 258 269 261 315 330 183 265 272 262 258 255 267 264 210 203 222 221 222 229 224 221 222 221 223 223 223 223 219 216 215 215 216 217 219 223 226 231 236 242 248 255 262 272 285 296 306 312 317 321 324 327 328 329 330 330 331 332 332 331 329 325 322 322 322 323 324 324 324 325 325
359 242 243 224 182 108 92 121 116 122 119 102 145 193 280 245 271 291 319 350 351 178 267 288 278 266 255 262 263 218 205 231 227 225 231 226 220 223 224 225 225 224 222 219 217 215 215 217 217 220 223 226 230 235 241 246 253 262 273 285 296 306 311 317 321 323 325 326 328 329 329 330 330 331 329 328 327 325 324 326 326 326 326 326 326 326
247 254 248 189 143 110 86 109 107 101 122 145 152 166 261 265 288 284 311 338 308 219 268 290 280 269 252 252 262 237 222 239 241 236 237 232 226 227 229 230 227 225 223 220 217 216 215 216 217 220 222 224 228 233 239 244 252 262 273 285 295 304 310 315 318 321 324 325 326 327 327 328 328 329 328 327 327 327 326 328 327 327 326 326 326 326
237 242 167 120 130 139 137 149 140 154 251 246 197 195 238 257 234 235 289 328 317 305 311 317 296 279 239 236 263 259 230 248 250 242 241 235 233 234 235 234 231 227 225 222 218 216 215 216 218 220 221 224 227 232 239 244 251 261 271 283 294 302 308 313 316 319 322 323 324 325 325 326 326 326 327 326 327 327 326 326 326 325 325 324 324 324
259 225 150 127 119 147 153 190 190 175 217 294 230 207 223 242 245 260 325 349 347 327 339 12 324 288 237 209 267 282 242 256 249 237 240 237 233 233 234 235 233 230 228 225 223 219 217 218 219 220 221 223 227 232 238 244 250 258 269 281 292 300 305 311 315 319 322 323 324 325 326 327 326 327 328 327 326 325 324 323 323 322 322 322 322 322
259 144 130 144 149 152 167 225 229 169 148 296 247 199 205 211 218 265 347 7 298 263 296 54 330 272 279 153 252 269 265 270 257 235 240 238 231 230 233 236 233 230 229 227 225 222 220 219 219 220 221 223 226 232 238 243 248 255 267 280 289 296 303 310 315 319 321 323 324 326 327 328 328 329 329 328 326 325 324 323 322 321 322 323 323 322
156 109 76 108 124 143 178 234 224 156 135 239 224 135 134 139 160 191 117 107 241 271 298 179 163 272 279 218 237 271 285 283 274 260 248 237 232 232 235 237 234 232 230 227 225 223 221 221 221 222 222 224 227 231 237 241 245 253 264 277 286 293 301 309 315 319 321 322 324 325 326 327 328 328 327 326 325 324 323 322 321 321 322 323 323 322
130 159 180 143 124 176 201 226 191 158 153 237 192 122 115 126 144 149 124 195 274 6 294 219 150 269 274 241 263 325 286 271 271 267 260 237 231 234 238 238 236 234 233 230 227 225 223 222 223 224 224 224 227 231 236 240 243 250 260 273 283 291 301 308 314 318 321 322 323 324 325 326 328 327 326 324 323 323 322 321 321 321 321 322 322 322
91 173 193 151 153 212 212 241 178 168 189 186 138 102 73 77 83 88 112 143 47 338 268 220 163 236 272 222 174 40 241 246 259 265 267 255 241 239 241 241 239 236 234 233 231 228 226 225 223 223 223 224 227 230 234 238 241 246 255 268 280 290 299 308 313 317 320 321 322 324 325 326 327 326 324 322 322 321 320 320 320 320 321 321 321 321
23 81 190 170 186 183 138 80 83 126 136 128 108 68 37 40 51 50 64 75 52 277 271 222 179 196 277 242 184 193 209 213 225 250 269 270 258 251 248 245 242 239 236 234 232 230 227 225 223 222 222 223 225 228 231 234 238 244 253 263 277 289 298 307 313 316 319 320 322 324 325 326 326 325 322 321 321 321 320 320 320 320 321 321 321 320
348 114 242 225 180 132 100 73 44 57 96 108 85 63 20 339 14 19 355 43 58 254 279 250 184 189 243 248 212 231 243 218 204 232 258 266 265 261 256 251 247 243 240 235 231 228 225 222 220 219 220 221 222 225 227 232 236 241 252 263 276 289 298 307 312 315 317 319 323 323 324 326 325 323 321 321 321 321 321 321 320 321 321 321 321 321
302 230 234 206 184 159 119 76 25 7 51 98 92 86 55 329 353 346 311 72 229 248 261 164 168 216 246 245 231 242 254 241 215 219 243 260 269 269 265 259 254 247 241 235 231 227 224 221 218 216 217 218 220 223 225 230 234 240 252 264 278 289 298 306 310 313 316 320 322 322 324 325 322 320 320 320 320 320 321 321 321 321 321 321 321 322
289 291 160 154 242 190 166 156 201 251 145 151 147 135 146 122 52 279 274 280 270 270 256 162 154 257 272 258 225 225 233 237 235 234 245 258 265 269 270 267 260 251 243 237 232 229 225 222 218 216 216 216 218 221 225 229 233 240 251 265 280 291 298 304 309 312 316 319 321 322 324 323 320 319 319 319 319 320 321 320 320 321 321 321 321 322
248 288 211 180 222 181 183 192 164 142 144 175 155 137 162 156 164 222 233 247 275 292 268 206 188 229 260 276 220 218 231 238 243 248 253 259 262 265 268 263 257 251 244 238 233 230 228 223 218 216 216 216 218 221 224 228 232 240 252 266 280 290 297 303 307 311 315 318 320 323 323 321 319 318 319 319 320 320 321 320 320 321 321 321 321 321
222 267 246 205 66 159 182 202 115 112 132 197 127 120 188 187 169 206 211 195 262 320 277 212 222 227 224 278 248 224 243 241 242 250 254 259 261 261 259 255 252 248 242 237 234 231 228 222 217 216 216 216 217 220 224 228 233 241 252 266 279 288 295 301 306 311 314 317 321 323 322 319 318 318 319 319 320 320 321 321 320 321 321 321 321 320
209 274 287 29 3 143 164 203 110 128 183 163 142 178 214 185 134 136 264 31 65 301 272 222 253 273 298 284 246 201 234 245 243 248 251 255 258 254 251 251 249 246 242 239 236 233 228 221 217 217 216 215 216 219 223 228 233 242 253 265 277 286 293 300 305 310 313 316 321 322 319 318 318 319 319 319 321 321 321 321 321 321 320 321 321 320
195 271 285 100 229 264 23 34 40 35 131 132 185 211 189 125 91 107 248 342 39 257 276 276 267 278 282 279 291 129 217 246 246 245 250 254 251 243 247 250 249 247 244 242 239 234 228 222 218 216 215 216 217 220 223 227 233 241 252 263 273 281 289 298 304 309 314 317 321 320 318 318 318 319 320 320 321 322 322 322 321 321 320 321 321 320
156 257 289 104 196 263 21 52 151 9 90 133 204 228 117 140 167 112 155 237 241 237 273 282 282 276 255 243 266 206 212 231 240 242 249 250 236 234 243 248 248 245 243 240 237 232 227 223 219 215 214 214 216 218 221 225 232 241 250 260 270 278 287 296 302 307 313 317 318 317 317 319 319 320 320 321 322 323 322 322 321 321 321 321 322 321
123 204 261 242 231 247 56 181 190 195 95 82 298 317 26 157 179 167 157 181 183 203 264 290 298 279 246 186 216 228 208 211 224 233 243 240 228 231 240 246 245 242 241 239 236 232 228 224 218 215 213 212 213 216 220 225 231 238 248 256 265 277 286 295 301 307 313 316 316 316 317 319 320 320 321 322 323 323 322 322 322 322 322 322 323 323
102 196 235 278 329 237 188 210 199 186 171 154 191 220 244 172 113 204 227 143 142 183 241 274 281 274 260 146 198 221 200 205 209 220 240 234 228 235 240 244 245 243 242 240 237 234 229 223 217 212 212 212 214 217 219 223 228 235 244 252 261 273 284 293 301 308 313 315 315 316 319 319 320 321 321 323 323 323 322 322 322 323 323 323 323 324
146 189 213 193 239 219 211 239 208 183 170 176 195 195 195 173 117 214 248 214 159 190 206 175 259 273 269 133 195 212 196 211 204 218 243 228 224 236 241 244 245 245 244 241 238 234 228 221 214 209 209 210 213 216 217 220 226 233 239 247 258 271 283 292 301 308 311 312 314 317 319 319 320 322 323 323 324 323 323 323 323 324 323 324 325 325
119 122 218 234 232 221 237 326 150 170 135 193 218 191 180 165 150 197 230 225 175 206 208 107 268 271 263 137 171 193 198 225 215 219 240 229 228 238 243 245 246 245 244 241 237 232 227 220 212 206 207 209 212 215 216 220 226 231 237 244 256 270 282 293 301 307 308 311 315 317 319 320 322 323 323 324 324 324 324 323 323 324 325 326 326 325
106 132 222 255 275 331 356 1 73 69 72 236 238 179 169 197 199 208 218 186 157 199 172 97 255 263 266 106 153 206 224 251 239 229 231 231 236 243 247 248 247 244 241 237 234 230 224 216 207 204 207 209 212 214 215 219 224 228 235 243 254 269 282 293 301 305 308 312 316 319 320 322 323 324 324 324 325 324 324 324 325 326 327 327 326 324
171 178 181 244 285 306 312 336 6 344 197 220 234 182 194 219 215 214 74 137 231 199 154 146 248 253 265 76 112 125 286 269 260 243 234 236 243 248 250 251 247 242 237 233 229 224 219 212 206 205 208 210 211 212 214 218 222 226 233 243 255 270 283 294 300 304 309 313 318 321 322 323 323 323 324 325 325 325 325 326 327 328 328 327 325 323
176 187 175 210 240 244 250 246 218 226 199 211 233 199 208 216 208 213 223 199 229 201 155 199 244 256 276 276 248 242 264 259 261 251 239 242 249 252 253 252 246 239 234 230 226 220 216 210 205 206 209 210 210 211 214 218 220 225 233 243 257 271 284 294 300 306 312 317 320 323 323 323 324 324 325 326 327 327 327 327 328 328 328 327 326 323
160 213 199 218 228 231 247 247 185 133 149 201 218 213 214 214 206 215 235 222 224 217 199 229 245 264 277 271 265 262 262 266 272 267 250 246 252 255 255 253 246 240 234 229 223 218 214 209 206 207 209 208 209 211 214 218 220 224 231 242 258 274 286 295 302 309 315 320 322 323 323 324 325 326 328 329 329 329 329 328 328 328 328 328 326 323
122 232 219 227 232 235 250 249 183 143 195 210 211 220 221 213 204 207 227 233 226 220 237 243 246 256 261 264 269 270 268 271 275 274 264 253 256 258 255 251 244 237 232 225 221 218 214 209 206 207 207 207 208 210 213 216 218 221 228 240 257 275 287 296 306 313 317 321 323 324 325 326 327 328 330 331 331 330 329 328 328 328 329 329 326 325
174 234 230 230 236 242 251 248 190 170 228 227 216 229 222 205 205 208 224 234 227 218 245 250 246 248 254 260 266 267 266 267 273 280 282 270 263 260 252 244 239 234 228 223 222 219 215 211 207 206 206 205 207 210 212 213 213 217 226 239 257 275 289 300 309 315 319 322 324 326 327 328 329 329 331 332 331 330 329 328 329 329 330 329 327 327
183 239 239 235 245 248 249 246 202 191 240 250 243 245 227 190 207 220 227 234 229 229 245 253 255 257 259 260 261 266 272 276 279 283 284 277 269 260 248 241 239 234 229 226 226 222 216 212 208 206 205 205 207 209 210 210 210 215 225 239 259 276 291 303 311 315 320 324 326 328 328 329 330 331 331 331 331 331 330 329 329 330 331 330 329 330
207 234 238 231 247 253 250 245 208 205 233 245 253 256 241 199 217 233 236 234 231 238 246 254 263 264 261 260 263 271 276 279 280 278 275 273 270 259 247 243 239 235 233 231 228 223 216 211 208 206 206 206 208 208 207 207 208 214 225 239 258 277 293 304 311 316 322 326 328 329 329 329 330 331 331 331 331 332 331 330 331 332 332 331 330 332
209 231 243 174 233 251 254 238 193 197 227 246 253 255 244 223 229 240 243 229 219 234 247 255 259 258 259 268 275 272 269 269 269 269 269 270 267 253 242 241 240 237 236 233 227 221 215 211 208 207 207 206 205 204 204 205 206 212 224 240 259 280 296 305 312 319 325 328 329 329 330 330 330 331 331 331 332 333 333 331 332 333 333 332 333 336
189 211 208 178 229 252 255 156 146 140 153 251 248 245 240 236 237 244 252 242 226 226 236 244 249 253 262 278 275 269 268 264 261 263 264 264 260 251 244 243 243 242 239 235 228 222 218 214 210 207 205 203 202 202 201 202 205 213 225 242 262 283 299 307 314 322 327 329 329 329 330 330 330 331 331 333 334 335 334 333 333 335 335 334 337 340
194 218 220 200 233 250 218 118 110 149 225 245 242 216 225 235 236 236 244 245 238 228 226 236 252 261 267 267 262 266 270 268 267 268 267 264 257 251 249 249 248 246 242 236 230 225 220 214 208 204 203 201 200 199 198 199 205 214 226 244 265 286 300 308 317 324 328 330 329 330 330 330 330 331 333 334 335 336 335 333 335 337 337 337 340 342
200 213 221 212 236 249 141 125 178 222 228 249 329 164 207 222 226 228 238 245 244 239 234 237 251 260 260 256 258 263 266 269 273 277 275 269 262 255 253 255 252 247 241 234 228 223 218 210 204 200 198 198 197 196 195 199 206 215 228 246 269 289 301 311 320 326 329 329 329 330 330 330 331 332 334 335 337 337 335 335 338 340 339 340 343 344
205 203 211 212 215 214 147 196 230 252 270 300 299 266 225 195 199 225 246 253 249 243 236 233 245 254 256 256 258 259 263 271 279 281 276 271 266 260 256 257 256 250 244 239 232 226 219 210 203 199 196 194 194 193 195 199 206 216 229 248 274 291 303 315 323 327 328 329 330 331 330 331 333 334 335 336 338 337 336 337 342 342 341 342 344 345
207 204 211 221 214 220 234 229 245 280 296 283 270 260 228 157 167 200 247 263 260 250 228 221 241 251 251 252 256 259 266 284 289 280 276 273 269 264 260 259 260 256 250 244 235 225 217 207 199 196 195 192 191 192 195 199 206 217 231 252 276 294 308 319 324 327 328 329 331 332 332 333 334 335 336 337 338 338 337 341 345 344 342 343 345 346
214 212 210 226 223 221 241 249 251 260 259 253 256 262 235 166 184 187 214 261 267 256 199 202 236 247 246 250 252 250 265 285 278 273 274 273 270 268 263 258 255 252 245 235 224 214 206 199 194 193 193 191 189 191 194 199 207 216 231 254 278 298 312 320 324 326 329 331 332 333 335 335 336 336 336 338 339 338 339 344 347 345 344 345 347 347
223 225 220 233 235 227 236 245 242 242 247 255 262 271 139 146 154 130 186 260 265 239 174 197 229 236 241 245 227 146 137 243 257 265 268 271 272 270 264 252 244 239 232 226 221 213 202 193 190 190 188 187 189 190 192 199 206 216 234 257 281 302 313 319 324 328 331 334 334 335 337 337 337 337 337 338 339 340 342 347 348 346 346 347 348 349
217 226 228 231 234 233 235 241 246 247 254 262 268 248 149 142 125 101 261 262 259 177 177 199 216 226 233 225 175 150 175 217 242 262 265 267 264 257 254 244 237 231 221 215 213 207 197 189 188 188 185 185 189 188 192 199 204 218 240 261 285 305 315 320 326 331 333 335 336 337 338 337 337 338 337 337 340 342 345 349 349 348 347 348 350 351
195 214 217 220 230 232 231 240 249 251 253 256 239 161 155 135 113 207 249 251 242 158 183 192 202 221 223 188 159 187 217 224 236 255 261 257 247 240 235 230 229 225 218 212 205 197 191 187 187 187 184 185 188 188 192 199 204 221 246 269 291 306 315 322 329 334 334 336 337 338 339 338 337 338 338 339 342 344 347 351 351 350 349 350 352 353
183 194 202 214 231 229 229 244 255 259 253 243 182 153 162 151 206 237 238 246 259 203 188 190 202 216 212 195 196 214 228 232 237 245 251 249 243 233 223 217 213 207 205 203 196 191 188 185 184 185 183 184 186 188 191 196 205 225 247 273 293 307 318 326 333 335 334 336 338 338 339 339 339 338 338 342 345 345 348 353 355 352 350 352 354 354
179 180 199 203 210 215 231 237 232 254 243 200 151 145 174 196 235 241 240 266 265 242 205 201 214 217 210 209 216 222 230 236 236 239 243 244 237 229 222 218 214 207 200 194 189 188 188 185 182 182 182 183 185 188 190 195 207 225 247 276 293 308 321 329 334 334 334 336 337 338 339 340 341 340 340 345 348 347 349 354 358 355 352 355 358 356
166 181 213 207 193 198 219 208 211 244 212 159 156 190 212 214 232 242 241 250 255 246 226 220 230 232 225 224 226 227 227 230 233 234 233 230 225 220 214 211 209 204 197 191 187 186 187 186 183 180 181 183 184 186 189 197 210 222 243 276 295 311 324 331 334 333 335 336 335 337 340 342 343 342 344 349 351 350 352 356 360 358 354 357 1 359
188 200 217 219 200 200 216 217 216 233 194 175 189 216 219 220 232 241 241 246 252 245 232 228 236 239 235 232 231 227 225 227 230 230 226 223 219 213 207 205 202 198 194 189 185 184 185 186 184 181 181 181 182 185 191 199 210 219 241 275 295 313 325 331 333 333 334 334 333 335 340 344 346 346 350 355 353 353 355 358 0 1 358 358 2 3
208 213 223 228 217 217 236 243 236 232 196 193 211 226 229 229 235 239 240 244 248 247 242 238 240 241 239 234 228 225 227 228 226 224 222 219 214 208 204 200 196 194 191 187 185 184 183 183 183 182 181 181 181 187 193 199 207 218 242 272 295 316 326 330 330 332 333 332 332 336 340 344 348 353 358 0 357 355 359 0 1 3 2 360 1 5
219 221 226 225 217 221 233 234 232 231 219 210 219 230 236 239 239 237 236 238 242 245 245 244 245 245 242 237 231 228 230 228 222 219 217 213 209 205 202 199 194 192 190 188 186 184 182 182 182 181 182 183 183 188 195 198 204 218 242 270 298 318 326 328 329 330 331 331 332 337 341 343 349 358 6 6 1 358 360 2 4 6 6 2 0 4
208 209 215 220 220 227 233 231 231 235 231 226 230 237 242 243 240 236 236 239 242 245 244 244 245 244 241 238 235 231 230 227 222 218 214 211 209 205 202 199 194 190 189 188 187 185 183 183 183 182 183 185 186 190 193 195 203 221 244 272 302 318 323 326 327 328 329 331 334 338 342 345 352 1 8 10 9 5 1 1 4 10 12 9 5 6
177 191 196 205 220 232 241 243 244 250 248 238 238 239 241 243 242 238 238 242 243 244 244 244 245 244 242 241 237 230 227 226 225 222 217 212 208 205 202 199 195 191 190 188 187 187 186 186 185 185 185 186 189 190 190 194 206 222 244 274 303 318 322 323 324 325 328 331 335 339 342 348 356 3 5 6 12 16 12 4 2 6 13 16 15 15
165 202 197 201 224 232 234 233 234 239 242 238 240 240 240 242 244 241 240 241 241 241 242 242 242 241 241 240 237 230 227 229 228 223 218 214 210 208 204 198 193 191 189 187 186 186 186 186 186 186 186 188 189 189 190 196 208 223 244 273 302 316 318 318 319 322 326 328 332 338 342 350 1 6 4 2 4 12 20 19 9 4 8 14 17 19
203 213 203 208 228 231 227 226 227 231 235 241 246 248 247 243 240 238 238 240 240 241 240 238 236 234 234 235 234 232 231 233 229 222 216 213 211 210 206 199 195 192 189 187 186 184 183 184 186 187 189 189 188 188 192 199 210 226 245 272 303 311 311 311 313 317 322 326 330 336 343 354 4 8 6 3 3 4 8 15 18 15 12 12 13 16